Kayseri, Turkey

2:21 PM +03 on September 21, 2017 (GMT +0300)
Erkilet Air Base

Weather History for LTAU - November, 2012

Change the Weather History Date:

Tuesday, November 6, 2012

  Actual Average Record
Temperature  
Mean Temperature 52 °F -  
Max Temperature 72 °F 50 °F 72 °F (2012)
Min Temperature 32 °F 28 °F 22 °F (2014)
Degree Days  
Heating Degree Days 13    
Growing Degree Days 2 (Base 50)    
Moisture  
Dew Point 35 °F    
Average Humidity 59    
Maximum Humidity 93    
Minimum Humidity 12    
Precipitation  
Precipitation 0.00 in - - ()
Sea Level Pressure  
Sea Level Pressure 30.09 in    
Wind  
Wind Speed 1 mph ()    
Max Wind Speed 7 mph    
Max Gust Speed -    
Visibility 7.7 miles    
Events      
Averages and records for this station are not official NWS values.
T = Trace of Precipitation, MM = Missing Value Source: Averaged Metar Reports

Daily Weather History Graph

Daily Weather History Graph

Search for Another Location

Airport or City:

Trip Planner

Search our weather history database for the weather conditions in past years. The results will help you decide how hot, cold, wet, or windy it might be!

Date:

Astronomy

Nov. 06, 2012 Rise Set
Actual Time 6:10 AM EET 4:32 PM EET
Civil Twilight 5:43 AM EET 5:00 PM EET
Nautical Twilight 5:11 AM EET 5:31 PM EET
Astronomical Twilight 4:40 AM EET 6:03 PM EET
Moon 10:49 PM EET (11/6) 11:52 AM EET (11/6)
Length of Visible Light 11h 17m
Length of Day
10h 21m
Waning Gibbous, 56% of the Moon is Illuminated
Nov 6
Waning Gibbous
Nov 7
Last Quarter
Nov 14
New
Nov 20
First Quarter
Nov 28
Full

Hourly Weather History & Observations

Time (EET) Temp. Windchill Dew Point Humidity Pressure Visibility Wind Dir Wind Speed Gust Speed Precip Events Conditions
12:20 AM 39.2 °F - 33.8 °F 81% 30.12 in - Calm Calm - N/A   Clear
12:50 AM 35.6 °F - 32.0 °F 87% 30.12 in - Calm Calm - N/A   Clear
1:20 AM 37.4 °F - 32.0 °F 81% 30.12 in - Calm Calm - N/A   Clear
1:50 AM 35.6 °F 31.7 °F 32.0 °F 87% 30.12 in - NNE 4.6 mph - N/A   Clear
2:00 AM 36 °F - 31 °F 76%  in 12 mi NNE 4.6 mph - -  
2:20 AM 39.2 °F - 33.8 °F 81% 30.09 in - Variable 2.3 mph - N/A   Clear
2:50 AM 37.4 °F - 32.0 °F 81% 30.09 in - NE 2.3 mph - N/A   Clear
3:20 AM 35.6 °F - 32.0 °F 87% 30.09 in - Variable 1.2 mph - N/A   Clear
3:50 AM 33.8 °F 30.8 °F 30.2 °F 87% 30.09 in - NE 3.5 mph - N/A   Clear
4:20 AM 35.6 °F 32.8 °F 32.0 °F 87% 30.09 in - ENE 3.5 mph - N/A   Clear
4:50 AM 35.6 °F - 32.0 °F 87% 30.09 in - Calm Calm - N/A   Clear
5:20 AM 35.6 °F 32.8 °F 32.0 °F 87% 30.09 in - NNE 3.5 mph - N/A   Clear
5:50 AM 33.8 °F - 32.0 °F 93% 30.12 in - ENE 2.3 mph - N/A   Clear
6:20 AM 33.8 °F - 30.2 °F 87% 30.12 in - Calm Calm - N/A   Clear
6:50 AM 35.6 °F - 32.0 °F 87% 30.12 in - Calm Calm - N/A   Clear
7:20 AM 39.2 °F - 35.6 °F 87% 30.12 in - NNE 1.2 mph - N/A   Clear
7:50 AM 44.6 °F - 39.2 °F 81% 30.12 in - Calm Calm - N/A   Clear
8:00 AM 45 °F - 38 °F 70%  in 12 mi Calm Calm - -  
8:20 AM 50.0 °F - 39.2 °F 66% 30.12 in - Calm Calm - N/A   Clear
8:50 AM 53.6 °F - 39.2 °F 58% 30.12 in - Calm Calm - N/A   Clear
9:20 AM 57.2 °F - 39.2 °F 51% 30.12 in - Calm Calm - N/A   Clear
9:50 AM 60.8 °F - 39.2 °F 45% 30.12 in - Calm Calm - N/A   Clear
10:20 AM 60.8 °F - 39.2 °F 45% 30.09 in - Variable 1.2 mph - N/A   Clear
10:50 AM 64.4 °F - 39.2 °F 40% 30.09 in - Calm Calm - N/A   Clear
11:20 AM 66.2 °F - 35.6 °F 32% 30.09 in 6.2 mi Calm Calm - N/A   Partly Cloudy
11:50 AM 68.0 °F - 37.4 °F 33% 30.06 in 6.2 mi Variable 1.2 mph - N/A   Partly Cloudy
12:20 PM 69.8 °F - 35.6 °F 28% 30.06 in 6.2 mi Variable 1.2 mph - N/A   Scattered Clouds
12:50 PM 71.6 °F - 33.8 °F 25% 30.06 in 6.2 mi SE 4.6 mph - N/A   Scattered Clouds
1:20 PM 71.6 °F - 32.0 °F 23% 30.04 in 6.2 mi SSW 4.6 mph - N/A   Mostly Cloudy
1:50 PM 71.6 °F - 32.0 °F 23% 30.04 in 6.2 mi Variable 2.3 mph - N/A   Mostly Cloudy
2:00 PM 72 °F - 31 °F 12%  in 12 mi South 2.3 mph - -   Scattered Clouds
2:20 PM 71.6 °F - 33.8 °F 25% 30.04 in 6.2 mi WSW 6.9 mph - N/A   Mostly Cloudy
2:50 PM 71.6 °F - 32.0 °F 23% 30.04 in 6.2 mi Variable 2.3 mph - N/A   Mostly Cloudy
3:20 PM 71.6 °F - 32.0 °F 23% 30.04 in 6.2 mi Calm Calm - N/A   Mostly Cloudy
3:50 PM 69.8 °F - 33.8 °F 27% 30.04 in 6.2 mi Calm Calm - N/A   Mostly Cloudy
4:20 PM 68.0 °F - 35.6 °F 30% 30.04 in 6.2 mi Calm Calm - N/A   Mostly Cloudy
4:50 PM 62.6 °F - 39.2 °F 42% 30.04 in - Calm Calm - N/A   Clear
5:20 PM 60.8 °F - 37.4 °F 42% 30.06 in - NNE 3.5 mph - N/A   Clear
5:50 PM 59.0 °F - 37.4 °F 45% 30.06 in - ENE 2.3 mph - N/A   Clear
6:20 PM 60.8 °F - 35.6 °F 39% 30.09 in - NNW 3.5 mph - N/A   Clear
6:50 PM 57.2 °F - 35.6 °F 44% 30.09 in - Calm Calm - N/A   Clear
7:20 PM 53.6 °F - 37.4 °F 54% 30.09 in - Variable 2.3 mph - N/A   Clear
7:50 PM 51.8 °F - 37.4 °F 58% 30.09 in - Calm Calm - N/A   Clear
8:00 PM 52 °F - 38 °F 47%  in 12 mi Calm Calm - -  
8:20 PM 51.8 °F - 39.2 °F 62% 30.12 in - Calm Calm - N/A   Clear
8:50 PM 48.2 °F - 37.4 °F 66% 30.12 in - Calm Calm - N/A   Clear
9:20 PM 50.0 °F - 39.2 °F 66% 30.12 in - Calm Calm - N/A   Clear
9:50 PM 46.4 °F - 37.4 °F 71% 30.12 in - NE 1.2 mph - N/A   Clear
10:20 PM 44.6 °F 42.2 °F 35.6 °F 71% 30.12 in - NNE 4.6 mph - N/A   Clear
10:50 PM 44.6 °F 42.2 °F 33.8 °F 66% 30.12 in - NNE 4.6 mph - N/A   Clear
11:20 PM 44.6 °F - 35.6 °F 71% 30.12 in - Calm Calm - N/A   Clear
11:50 PM 42.8 °F - 35.6 °F 76% 30.12 in - Calm Calm - N/A   Clear